Weather in Kochenyovo

Russia / Novosibirsk Oblast     55°01′08″N   82°12′22″E
temp.,
°C
wind,
m/s
gust,
m/s
humid.,
%
clouds,
%
prec.,
mm/h
press.,
hPa
HPBL,
m
1 march, mon
mon101:00−13ese599599 0.5 1021320
04:00−10se5995100 0.6 1016405
07:00−9ese5995100 2.1 1013389
10:00−7ese5995100 1.6 1010441
13:00−4ene4696100 3.4 1008340
16:00−3nne4696100 0.8 1007323
19:00−7nne5896100 1.4 1007249
22:00−9ne5895100 1.0 1007274
2 march, tue
tue201:00−11nne4795100 1.9 1009257
04:00−13nne3596100 0.2 1010171
07:00−15n239694 0.4 101372
10:00−16nnw119679 0.1 101452
13:00−13w239082 0.1 1016333
16:00−11w2488100 0.1 1015504
19:00−13w2295100 0.1 101620
22:00−15w2296100 0.0 101620
3 march, wed
wed301:00−15wsw2296100 0.1 101520
04:00−16wsw129681 0.1 101620
07:00−16wsw129686 0.2 101720
10:00−15sw239587 0.1 1017114
13:00−12sw238986 0.1 1018348
16:00−10sw3590100 0.1 1018563
19:00−12sw3494100 0.1 101983
22:00−14ssw4109591 0.0 1021228
4 march, thu
thu401:00−17s5119477 0.1 1021247
04:00−14s51292100 0.0 1019417
07:00−11s71492100 0.3 1019544
10:00−9ssw81592100 0.3 1017594
13:00−6ssw81591100 0.6 1017663
16:00−5ssw91593100 0.4 1015696
19:00−5ssw81593100 1.0 1015785
22:00−4ssw91789100 0.1 1014695
5 march, fri
fri501:00−5ssw81787100 0.1 1013562
04:00−5ssw71685100 0.0 1011544
07:00−7s61586100 0.0 1010446
10:00−6ssw71494100 0.2 1008550
13:00−4sw61095100 1.3 1008633
16:00−1w91386100 0.5 10111068
19:00−6wsw7148396 0.5 1016617
22:00−8sw7158753 0.0 1018508